00:00:01,6CBB5AE0,0,0,19695,0,0,146
00:00:09,6CBB5BE0,0,0,19695,0,0,146
00:00:17,6CBB5CE0,0,0,19695,0,0,146
00:00:25,6CBB5DE0,0,0,19695,0,0,146
00:00:33,6CBB5EE0,0,0,19695,0,0,146
00:00:41,6CBB5FE0,0,0,19695,0,0,146
00:00:49,6CBB60E0,0,0,19695,0,0,146
00:00:57,6CBB61E0,0,0,19695,0,0,145
00:01:05,6CBB62E0,0,0,19695,0,0,145
00:01:13,6CBB63E0,0,0,19695,0,0,144
00:01:21,6CBB64E0,0,0,19695,0,0,144
00:01:29,6CBB65E0,0,0,19695,0,0,144
00:01:37,6CBB66E0,0,0,19695,0,0,144
00:01:45,6CBB67E0,0,0,19695,0,0,143
00:01:53,6CBB68E0,0,0,19695,0,0,143
00:02:01,6CBB69E0,0,0,19695,0,0,143
00:02:09,6CBB6AE0,0,0,19695,0,0,142
00:02:17,6CBB6BE0,0,0,19695,0,0,142
00:02:25,6CBB6CE0,0,0,19695,0,0,142
00:02:33,6CBB6DE0,0,0,19695,0,0,141
00:02:41,6CBB6EE0,0,0,19695,0,0,141
00:02:49,6CBB6FE0,0,0,19695,0,0,141
00:02:57,6CBB70E0,0,0,19695,0,0,141
00:03:05,6CBB71E0,0,0,19695,0,0,141
00:03:13,6CBB72E0,0,0,19695,0,0,141
00:03:21,6CBB73E0,0,0,19695,0,0,141
00:03:29,6CBB74E0,0,0,19695,0,0,141
00:03:37,6CBB75E0,0,0,19695,0,0,142
00:03:45,6CBB76E0,0,0,19695,0,0,142
00:03:53,6CBB77E0,0,0,19695,0,0,142
00:04:01,6CBB78E0,0,0,19695,0,0,142
00:04:09,6CBB79E0,0,0,19695,0,0,142
00:04:17,6CBB7AE0,0,0,19695,0,0,143
00:04:25,6CBB7BE0,0,0,19695,0,0,143
00:04:33,6CBB7CE0,0,0,19695,0,0,143
00:04:41,6CBB7DE0,0,0,19695,0,0,143
00:04:49,6CBB7EE0,0,0,19695,0,0,143
00:04:57,6CBB7FE0,0,0,19695,0,0,143
00:05:05,6CBB80E0,0,0,19695,0,0,144
00:05:13,6CBB81E0,0,0,19695,0,0,144
00:05:21,6CBB82E0,0,0,19695,0,0,144
00:05:29,6CBB83E0,0,0,19695,0,0,144
00:05:37,6CBB84E0,0,0,19695,0,0,145
00:05:45,6CBB85E0,0,0,19695,0,0,145
00:05:53,6CBB86E0,0,0,19695,0,0,145
00:06:01,6CBB87E0,0,0,19695,0,0,145
00:06:09,6CBB88E0,0,0,19695,0,0,145
00:06:17,6CBB89E0,0,0,19695,0,0,145
00:06:25,6CBB8AE0,0,0,19695,0,0,146
00:06:33,6CBB8BE0,0,0,19695,0,0,146
00:06:41,6CBB8CE0,0,0,19695,0,0,146
00:06:49,6CBB8DE0,0,0,19695,0,0,146
00:06:57,6CBB8EE0,0,0,19695,0,0,146
00:07:05,6CBB8FE0,0,0,19695,0,0,146
00:07:13,6CBB90E0,0,0,19695,0,0,146
00:07:21,6CBB91E0,0,0,19695,0,0,146
00:07:29,6CBB92E0,0,0,19695,0,0,145
00:07:37,6CBB93E0,0,0,19695,0,0,145
00:07:45,6CBB94E0,0,0,19695,0,0,145
00:07:53,6CBB95E0,0,0,19695,0,0,144
00:08:01,6CBB96E0,0,0,19695,0,0,144
00:08:09,6CBB97E0,0,0,19695,0,0,144
00:08:17,6CBB98E0,0,0,19695,0,0,143
00:08:25,6CBB99E0,0,0,19695,0,0,143
00:08:33,6CBB9AE0,0,0,19695,0,0,143
00:08:41,6CBB9BE0,0,0,19695,0,0,142
00:08:49,6CBB9CE0,0,0,19695,0,0,142
00:08:57,6CBB9DE0,0,0,19695,0,0,142
00:09:05,6CBB9EE0,0,0,19695,0,0,141
00:09:13,6CBB9FE0,0,0,19695,0,0,141
00:09:21,6CBBA0E0,0,0,19695,0,0,141
00:09:29,6CBBA1E0,0,0,19695,0,0,140
00:09:37,6CBBA2E0,0,0,19695,0,0,140
00:09:45,6CBBA3E0,0,0,19695,0,0,141
00:09:53,6CBBA4E0,0,0,19695,0,0,141
00:10:01,6CBBA5E0,0,0,19695,0,0,141
00:10:09,6CBBA6E0,0,0,19695,0,0,141
00:10:17,6CBBA7E0,0,0,19695,0,0,142
00:10:25,6CBBA8E0,0,0,19695,0,0,142
00:10:33,6CBBA9E0,0,0,19695,0,0,142
00:10:41,6CBBAAE0,0,0,19695,0,0,142
00:10:49,6CBBABE0,0,0,19695,0,0,143
00:10:57,6CBBACE0,0,0,19695,0,0,143
00:11:05,6CBBADE0,0,0,19695,0,0,143
00:11:13,6CBBAEE0,0,0,19695,0,0,143
00:11:21,6CBBAFE0,0,0,19695,0,0,143
00:11:29,6CBBB0E0,0,0,19695,0,0,143
00:11:37,6CBBB1E0,0,0,19695,0,0,144
00:11:45,6CBBB2E0,0,0,19695,0,0,144
00:11:53,6CBBB3E0,0,0,19695,0,0,144
00:12:01,6CBBB4E0,0,0,19695,0,0,144
00:12:09,6CBBB5E0,0,0,19695,0,0,144
00:12:17,6CBBB6E0,0,0,19695,0,0,145
00:12:25,6CBBB7E0,0,0,19695,0,0,145
00:12:33,6CBBB8E0,0,0,19695,0,0,145
00:12:41,6CBBB9E0,0,0,19695,0,0,145
00:12:49,6CBBBAE0,0,0,19695,0,0,145
00:12:57,6CBBBBE0,0,0,19695,0,0,145
00:13:05,6CBBBCE0,0,0,19695,0,0,145
00:13:13,6CBBBDE0,0,0,19695,0,0,145
00:13:21,6CBBBEE0,0,0,19695,0,0,146
00:13:29,6CBBBFE0,0,0,19695,0,0,146
00:13:37,6CBBC0E0,0,0,19695,0,0,146
00:13:45,6CBBC1E0,0,0,19695,0,0,146
00:13:53,6CBBC2E0,0,0,19695,0,0,146
00:14:01,6CBBC3E0,0,0,19695,0,0,146
00:14:09,6CBBC4E0,0,0,19695,0,0,145
00:14:17,6CBBC5E0,0,0,19695,0,0,145
00:14:25,6CBBC6E0,0,0,19695,0,0,145
00:14:33,6CBBC7E0,0,0,19695,0,0,144
00:14:41,6CBBC8E0,0,0,19695,0,0,144
00:14:49,6CBBC9E0,0,0,19695,0,0,143
00:14:57,6CBBCAE0,0,0,19695,0,0,143
00:15:05,6CBBCBE0,0,0,19695,0,0,143
00:15:13,6CBBCCE0,0,0,19695,0,0,142
00:15:21,6CBBCDE0,0,0,19695,0,0,142
00:15:29,6CBBCEE0,0,0,19695,0,0,142
00:15:37,6CBBCFE0,0,0,19695,0,0,142
00:15:45,6CBBD0E0,0,0,19695,0,0,141
00:15:53,6CBBD1E0,0,0,19695,0,0,141
00:16:01,6CBBD2E0,0,0,19695,0,0,141
00:16:09,6CBBD3E0,0,0,19695,0,0,141
00:16:17,6CBBD4E0,0,0,19695,0,0,141
00:16:25,6CBBD5E0,0,0,19695,0,0,141
00:16:33,6CBBD6E0,0,0,19695,0,0,141
00:16:41,6CBBD7E0,0,0,19695,0,0,141
00:16:49,6CBBD8E0,0,0,19695,0,0,141
00:16:57,6CBBD9E0,0,0,19695,0,0,142
00:17:05,6CBBDAE0,0,0,19695,0,0,142
00:17:13,6CBBDBE0,0,0,19695,0,0,142
00:17:21,6CBBDCE0,0,0,19695,0,0,143
00:17:29,6CBBDDE0,0,0,19695,0,0,143
00:17:37,6CBBDEE0,0,0,19695,0,0,143
00:17:45,6CBBDFE0,0,0,19695,0,0,143
00:17:53,6CBBE0E0,0,0,19695,0,0,143
00:18:01,6CBBE1E0,0,0,19695,0,0,143
00:18:09,6CBBE2E0,0,0,19695,0,0,144
00:18:17,6CBBE3E0,0,0,19695,0,0,144
00:18:25,6CBBE4E0,0,0,19695,0,0,144
00:18:33,6CBBE5E0,0,0,19695,0,0,144
00:18:41,6CBBE6E0,0,0,19695,0,0,144
00:18:49,6CBBE7E0,0,0,19695,0,0,145
00:18:57,6CBBE8E0,0,0,19695,0,0,145
00:19:05,6CBBE9E0,0,0,19695,0,0,145
00:19:13,6CBBEAE0,0,0,19695,0,0,145
00:19:21,6CBBEBE0,0,0,19695,0,0,145
00:19:29,6CBBECE0,0,0,19695,0,0,145
00:19:37,6CBBEDE0,0,0,19695,0,0,145
00:19:45,6CBBEEE0,0,0,19695,0,0,145
00:19:53,6CBBEFE0,0,0,19695,0,0,145
00:20:01,6CBBF0E0,0,0,19695,0,0,145
00:20:09,6CBBF1E0,0,0,19695,0,0,145
00:20:17,6CBBF2E0,0,0,19695,0,0,145
00:20:25,6CBBF3E0,0,0,19695,0,0,146
00:20:33,6CBBF4E0,0,0,19695,0,0,146
00:20:41,6CBBF5E0,0,0,19695,0,0,145
00:20:49,6CBBF6E0,0,0,19695,0,0,145
00:20:57,6CBBF7E0,0,0,19695,0,0,145
00:21:05,6CBBF8E0,0,0,19695,0,0,145
00:21:13,6CBBF9E0,0,0,19695,0,0,144
00:21:21,6CBBFAE0,0,0,19695,0,0,144
00:21:29,6CBBFBE0,0,0,19695,0,0,143
00:21:37,6CBBFCE0,0,0,19695,0,0,143
00:21:45,6CBBFDE0,0,0,19695,0,0,143
00:21:53,6CBBFEE0,0,0,19695,0,0,142
00:22:01,6CBBFFE0,0,0,19695,0,0,142
00:22:09,6CBC00E0,0,0,19695,0,0,142
00:22:17,6CBC01E0,0,0,19695,0,0,142
00:22:25,6CBC02E0,0,0,19695,0,0,141
00:22:33,6CBC03E0,0,0,19695,0,0,141
00:22:41,6CBC04E0,0,0,19695,0,0,141
00:22:49,6CBC05E0,0,0,19695,0,0,141
00:22:57,6CBC06E0,0,0,19695,0,0,141
00:23:05,6CBC07E0,0,0,19695,0,0,141
00:23:13,6CBC08E0,0,0,19695,0,0,141
00:23:21,6CBC09E0,0,0,19695,0,0,141
00:23:29,6CBC0AE0,0,0,19695,0,0,142
00:23:37,6CBC0BE0,0,0,19695,0,0,142
00:23:45,6CBC0CE0,0,0,19695,0,0,142
00:23:53,6CBC0DE0,0,0,19695,0,0,142
00:24:01,6CBC0EE0,0,0,19695,0,0,142
00:24:09,6CBC0FE0,0,0,19695,0,0,142
00:24:17,6CBC10E0,0,0,19695,0,0,143
00:24:25,6CBC11E0,0,0,19695,0,0,143
00:24:33,6CBC12E0,0,0,19695,0,0,143
00:24:41,6CBC13E0,0,0,19695,0,0,143
00:24:49,6CBC14E0,0,0,19695,0,0,144
00:24:57,6CBC15E0,0,0,19695,0,0,144
00:25:05,6CBC16E0,0,0,19695,0,0,144
00:25:13,6CBC17E0,0,0,19695,0,0,144
00:25:21,6CBC18E0,0,0,19695,0,0,144
00:25:29,6CBC19E0,0,0,19695,0,0,144
00:25:37,6CBC1AE0,0,0,19695,0,0,144
00:25:45,6CBC1BE0,0,0,19695,0,0,144
00:25:53,6CBC1CE0,0,0,19695,0,0,145
00:26:01,6CBC1DE0,0,0,19695,0,0,145
00:26:09,6CBC1EE0,0,0,19695,0,0,145
00:26:17,6CBC1FE0,0,0,19695,0,0,145
00:26:25,6CBC20E0,0,0,19695,0,0,145
00:26:33,6CBC21E0,0,0,19695,0,0,145
00:26:41,6CBC22E0,0,0,19695,0,0,145
00:26:49,6CBC23E0,0,0,19695,0,0,146
00:26:57,6CBC24E0,0,0,19695,0,0,146
00:27:05,6CBC25E0,0,0,19695,0,0,146
00:27:13,6CBC26E0,0,0,19695,0,0,146
00:27:21,6CBC27E0,0,0,19695,0,0,146
00:27:29,6CBC28E0,0,0,19695,0,0,145
00:27:37,6CBC29E0,0,0,19695,0,0,145
00:27:45,6CBC2AE0,0,0,19695,0,0,145
00:27:53,6CBC2BE0,0,0,19695,0,0,145
00:28:01,6CBC2CE0,0,0,19695,0,0,144
00:28:09,6CBC2DE0,0,0,19695,0,0,144
00:28:17,6CBC2EE0,0,0,19695,0,0,143
00:28:25,6CBC2FE0,0,0,19695,0,0,143
00:28:33,6CBC30E0,0,0,19695,0,0,143
00:28:41,6CBC31E0,0,0,19695,0,0,142
00:28:49,6CBC32E0,0,0,19695,0,0,142
00:28:57,6CBC33E0,0,0,19695,0,0,142
00:29:05,6CBC34E0,0,0,19695,0,0,141
00:29:13,6CBC35E0,0,0,19695,0,0,141
00:29:21,6CBC36E0,0,0,19695,0,0,141
00:29:29,6CBC37E0,0,0,19695,0,0,140
00:29:37,6CBC38E0,0,0,19695,0,0,141
00:29:45,6CBC39E0,0,0,19695,0,0,141
00:29:53,6CBC3AE0,0,0,19695,0,0,141
00:30:01,6CBC3BE0,0,0,19695,0,0,141
00:30:09,6CBC3CE0,0,0,19695,0,0,141
00:30:17,6CBC3DE0,0,0,19695,0,0,142
00:30:25,6CBC3EE0,0,0,19695,0,0,142
00:30:33,6CBC3FE0,0,0,19695,0,0,142
00:30:41,6CBC40E0,0,0,19695,0,0,142
00:30:49,6CBC41E0,0,0,19695,0,0,142
00:30:57,6CBC42E0,0,0,19695,0,0,143
00:31:05,6CBC43E0,0,0,19695,0,0,143
00:31:13,6CBC44E0,0,0,19695,0,0,143
00:31:21,6CBC45E0,0,0,19695,0,0,143
00:31:29,6CBC46E0,0,0,19695,0,0,144
00:31:37,6CBC47E0,0,0,19695,0,0,144
00:31:45,6CBC48E0,0,0,19695,0,0,144
00:31:53,6CBC49E0,0,0,19695,0,0,144
00:32:01,6CBC4AE0,0,0,19695,0,0,144
00:32:09,6CBC4BE0,0,0,19695,0,0,144
00:32:17,6CBC4CE0,0,0,19695,0,0,144
00:32:25,6CBC4DE0,0,0,19695,0,0,144
00:32:33,6CBC4EE0,0,0,19695,0,0,145
00:32:41,6CBC4FE0,0,0,19695,0,0,145
00:32:49,6CBC50E0,0,0,19695,0,0,145
00:32:57,6CBC51E0,0,0,19695,0,0,145
00:33:05,6CBC52E0,0,0,19695,0,0,145
00:33:13,6CBC53E0,0,0,19695,0,0,145
00:33:21,6CBC54E0,0,0,19695,0,0,146
00:33:29,6CBC55E0,0,0,19695,0,0,146
00:33:37,6CBC56E0,0,0,19695,0,0,146
00:33:45,6CBC57E0,0,0,19695,0,0,146
00:33:53,6CBC58E0,0,0,19695,0,0,146
00:34:01,6CBC59E0,0,0,19695,0,0,146
00:34:09,6CBC5AE0,0,0,19695,0,0,145
00:34:17,6CBC5BE0,0,0,19695,0,0,145
00:34:25,6CBC5CE0,0,0,19695,0,0,144
00:34:33,6CBC5DE0,0,0,19695,0,0,144
00:34:41,6CBC5EE0,0,0,19695,0,0,144
00:34:49,6CBC5FE0,0,0,19695,0,0,143
00:34:57,6CBC60E0,0,0,19695,0,0,143
00:35:05,6CBC61E0,0,0,19695,0,0,143
00:35:13,6CBC62E0,0,0,19695,0,0,143
00:35:21,6CBC63E0,0,0,19695,0,0,142
00:35:29,6CBC64E0,0,0,19695,0,0,142
00:35:37,6CBC65E0,0,0,19695,0,0,142
00:35:45,6CBC66E0,0,0,19695,0,0,141
00:35:53,6CBC67E0,0,0,19695,0,0,141
00:36:01,6CBC68E0,0,0,19695,0,0,141
00:36:09,6CBC69E0,0,0,19695,0,0,141
00:36:17,6CBC6AE0,0,0,19695,0,0,141
00:36:25,6CBC6BE0,0,0,19695,0,0,141
00:36:33,6CBC6CE0,0,0,19695,0,0,141
00:36:41,6CBC6DE0,0,0,19695,0,0,141
00:36:49,6CBC6EE0,0,0,19695,0,0,142
00:36:57,6CBC6FE0,0,0,19695,0,0,142
00:37:05,6CBC70E0,0,0,19695,0,0,142
00:37:13,6CBC71E0,0,0,19695,0,0,142
00:37:21,6CBC72E0,0,0,19695,0,0,143
00:37:29,6CBC73E0,0,0,19695,0,0,143
00:37:37,6CBC74E0,0,0,19695,0,0,143
00:37:45,6CBC75E0,0,0,19695,0,0,143
00:37:53,6CBC76E0,0,0,19695,0,0,143
00:38:01,6CBC77E0,0,0,19695,0,0,143
00:38:09,6CBC78E0,0,0,19695,0,0,144
00:38:17,6CBC79E0,0,0,19695,0,0,144
00:38:25,6CBC7AE0,0,0,19695,0,0,144
00:38:33,6CBC7BE0,0,0,19695,0,0,144
00:38:41,6CBC7CE0,0,0,19695,0,0,144
00:38:49,6CBC7DE0,0,0,19695,0,0,144
00:38:57,6CBC7EE0,0,0,19695,0,0,145
00:39:05,6CBC7FE0,0,0,19695,0,0,145
00:39:13,6CBC80E0,0,0,19695,0,0,145
00:39:21,6CBC81E0,0,0,19695,0,0,145
00:39:29,6CBC82E0,0,0,19695,0,0,145
00:39:37,6CBC83E0,0,0,19695,0,0,145
00:39:45,6CBC84E0,0,0,19695,0,0,145
00:39:53,6CBC85E0,0,0,19695,0,0,146
00:40:01,6CBC86E0,0,0,19695,0,0,146
00:40:09,6CBC87E0,0,0,19695,0,0,146
00:40:17,6CBC88E0,0,0,19695,0,0,146
00:40:25,6CBC89E0,0,0,19695,0,0,146
00:40:33,6CBC8AE0,0,0,19695,0,0,146
00:40:41,6CBC8BE0,0,0,19695,0,0,146
00:40:49,6CBC8CE0,0,0,19695,0,0,145
00:40:57,6CBC8DE0,0,0,19695,0,0,145
00:41:05,6CBC8EE0,0,0,19695,0,0,145
00:41:13,6CBC8FE0,0,0,19695,0,0,144
00:41:21,6CBC90E0,0,0,19695,0,0,144
00:41:29,6CBC91E0,0,0,19695,0,0,143
00:41:37,6CBC92E0,0,0,19695,0,0,143
00:41:45,6CBC93E0,0,0,19695,0,0,143
00:41:53,6CBC94E0,0,0,19695,0,0,142
00:42:01,6CBC95E0,0,0,19695,0,0,142
00:42:09,6CBC96E0,0,0,19695,0,0,142
00:42:17,6CBC97E0,0,0,19695,0,0,142
00:42:25,6CBC98E0,0,0,19695,0,0,141
00:42:33,6CBC99E0,0,0,19695,0,0,141
00:42:41,6CBC9AE0,0,0,19695,0,0,141
00:42:49,6CBC9BE0,0,0,19695,0,0,141
00:42:57,6CBC9CE0,0,0,19695,0,0,141
00:43:05,6CBC9DE0,0,0,19695,0,0,141
00:43:13,6CBC9EE0,0,0,19695,0,0,141
00:43:21,6CBC9FE0,0,0,19695,0,0,141
00:43:29,6CBCA0E0,0,0,19695,0,0,141
00:43:37,6CBCA1E0,0,0,19695,0,0,142
00:43:45,6CBCA2E0,0,0,19695,0,0,142
00:43:53,6CBCA3E0,0,0,19695,0,0,142
00:44:01,6CBCA4E0,0,0,19695,0,0,143
00:44:09,6CBCA5E0,0,0,19695,0,0,143
00:44:17,6CBCA6E0,0,0,19695,0,0,143
00:44:25,6CBCA7E0,0,0,19695,0,0,143
00:44:33,6CBCA8E0,0,0,19695,0,0,143
00:44:41,6CBCA9E0,0,0,19695,0,0,143
00:44:49,6CBCAAE0,0,0,19695,0,0,143
00:44:57,6CBCABE0,0,0,19695,0,0,144
00:45:05,6CBCACE0,0,0,19695,0,0,144
00:45:13,6CBCADE0,0,0,19695,0,0,144
00:45:21,6CBCAEE0,0,0,19695,0,0,144
00:45:29,6CBCAFE0,0,0,19695,0,0,144
00:45:37,6CBCB0E0,0,0,19695,0,0,145
00:45:45,6CBCB1E0,0,0,19695,0,0,145
00:45:53,6CBCB2E0,0,0,19695,0,0,145
00:46:01,6CBCB3E0,0,0,19695,0,0,145
00:46:09,6CBCB4E0,0,0,19695,0,0,145
00:46:17,6CBCB5E0,0,0,19695,0,0,145
00:46:25,6CBCB6E0,0,0,19695,0,0,145
00:46:33,6CBCB7E0,0,0,19695,0,0,145
00:46:41,6CBCB8E0,0,0,19695,0,0,145
00:46:49,6CBCB9E0,0,0,19695,0,0,145
00:46:57,6CBCBAE0,0,0,19695,0,0,145
00:47:05,6CBCBBE0,0,0,19695,0,0,146
00:47:13,6CBCBCE0,0,0,19695,0,0,146
00:47:21,6CBCBDE0,0,0,19695,0,0,146
00:47:29,6CBCBEE0,0,0,19695,0,0,145
00:47:37,6CBCBFE0,0,0,19695,0,0,145
00:47:45,6CBCC0E0,0,0,19695,0,0,145
00:47:53,6CBCC1E0,0,0,19695,0,0,144
00:48:01,6CBCC2E0,0,0,19695,0,0,144
00:48:09,6CBCC3E0,0,0,19695,0,0,144
00:48:17,6CBCC4E0,0,0,19695,0,0,143
00:48:25,6CBCC5E0,0,0,19695,0,0,143
00:48:33,6CBCC6E0,0,0,19695,0,0,143
00:48:41,6CBCC7E0,0,0,19695,0,0,142
00:48:49,6CBCC8E0,0,0,19695,0,0,142
00:48:57,6CBCC9E0,0,0,19695,0,0,142
00:49:05,6CBCCAE0,0,0,19695,0,0,142
00:49:13,6CBCCBE0,0,0,19695,0,0,141
00:49:21,6CBCCCE0,0,0,19695,0,0,141
00:49:29,6CBCCDE0,0,0,19695,0,0,141
00:49:37,6CBCCEE0,0,0,19695,0,0,141
00:49:45,6CBCCFE0,0,0,19695,0,0,141
00:49:53,6CBCD0E0,0,0,19695,0,0,141
00:50:01,6CBCD1E0,0,0,19695,0,0,141
00:50:09,6CBCD2E0,0,0,19695,0,0,141
00:50:17,6CBCD3E0,0,0,19695,0,0,142
00:50:25,6CBCD4E0,0,0,19695,0,0,142
00:50:33,6CBCD5E0,0,0,19695,0,0,142
00:50:41,6CBCD6E0,0,0,19695,0,0,142
00:50:49,6CBCD7E0,0,0,19695,0,0,142
00:50:57,6CBCD8E0,0,0,19695,0,0,143
00:51:05,6CBCD9E0,0,0,19695,0,0,143
00:51:13,6CBCDAE0,0,0,19695,0,0,143
00:51:21,6CBCDBE0,0,0,19695,0,0,143
00:51:29,6CBCDCE0,0,0,19695,0,0,143
00:51:37,6CBCDDE0,0,0,19695,0,0,144
00:51:45,6CBCDEE0,0,0,19695,0,0,144
00:51:53,6CBCDFE0,0,0,19695,0,0,144
00:52:01,6CBCE0E0,0,0,19695,0,0,144
00:52:09,6CBCE1E0,0,0,19695,0,0,144
00:52:17,6CBCE2E0,0,0,19695,0,0,144
00:52:25,6CBCE3E0,0,0,19695,0,0,144
00:52:33,6CBCE4E0,0,0,19695,0,0,145
00:52:41,6CBCE5E0,0,0,19695,0,0,145
00:52:49,6CBCE6E0,0,0,19695,0,0,145
00:52:57,6CBCE7E0,0,0,19695,0,0,145
00:53:05,6CBCE8E0,0,0,19695,0,0,145
00:53:13,6CBCE9E0,0,0,19695,0,0,145
00:53:21,6CBCEAE0,0,0,19695,0,0,145
00:53:29,6CBCEBE0,0,0,19695,0,0,145
00:53:37,6CBCECE0,0,0,19695,0,0,146
00:53:45,6CBCEDE0,0,0,19695,0,0,146
00:53:53,6CBCEEE0,0,0,19695,0,0,146
00:54:01,6CBCEFE0,0,0,19695,0,0,146
00:54:09,6CBCF0E0,0,0,19695,0,0,145
00:54:17,6CBCF1E0,0,0,19695,0,0,145
00:54:25,6CBCF2E0,0,0,19695,0,0,145
00:54:33,6CBCF3E0,0,0,19695,0,0,144
00:54:41,6CBCF4E0,0,0,19695,0,0,144
00:54:49,6CBCF5E0,0,0,19695,0,0,144
00:54:57,6CBCF6E0,0,0,19695,0,0,143
00:55:05,6CBCF7E0,0,0,19695,0,0,143
00:55:13,6CBCF8E0,0,0,19695,0,0,143
00:55:21,6CBCF9E0,0,0,19695,0,0,142
00:55:29,6CBCFAE0,0,0,19695,0,0,142
00:55:37,6CBCFBE0,0,0,19695,0,0,142
00:55:45,6CBCFCE0,0,0,19695,0,0,141
00:55:53,6CBCFDE0,0,0,19695,0,0,141
00:56:01,6CBCFEE0,0,0,19695,0,0,141
00:56:09,6CBCFFE0,0,0,19695,0,0,140
00:56:17,6CBD00E0,0,0,19695,0,0,141
00:56:25,6CBD01E0,0,0,19695,0,0,141
00:56:33,6CBD02E0,0,0,19695,0,0,141
00:56:41,6CBD03E0,0,0,19695,0,0,141
00:56:49,6CBD04E0,0,0,19695,0,0,141
00:56:57,6CBD05E0,0,0,19695,0,0,142
00:57:05,6CBD06E0,0,0,19695,0,0,142
00:57:13,6CBD07E0,0,0,19695,0,0,142
00:57:21,6CBD08E0,0,0,19695,0,0,142
00:57:29,6CBD09E0,0,0,19695,0,0,142
00:57:37,6CBD0AE0,0,0,19695,0,0,143
00:57:45,6CBD0BE0,0,0,19695,0,0,143
00:57:53,6CBD0CE0,0,0,19695,0,0,143
00:58:01,6CBD0DE0,0,0,19695,0,0,143
00:58:09,6CBD0EE0,0,0,19695,0,0,144
00:58:17,6CBD0FE0,0,0,19695,0,0,144
00:58:25,6CBD10E0,0,0,19695,0,0,144
00:58:33,6CBD11E0,0,0,19695,0,0,144
00:58:41,6CBD12E0,0,0,19695,0,0,144
00:58:49,6CBD13E0,0,0,19695,0,0,144
00:58:57,6CBD14E0,0,0,19695,0,0,144
00:59:05,6CBD15E0,0,0,19695,0,0,144
00:59:13,6CBD16E0,0,0,19695,0,0,145
00:59:21,6CBD17E0,0,0,19695,0,0,145
00:59:29,6CBD18E0,0,0,19695,0,0,145
00:59:37,6CBD19E0,0,0,19695,0,0,145
00:59:45,6CBD1AE0,0,0,19695,0,0,145
00:59:53,6CBD1BE0,0,0,19695,0,0,145
01:00:01,6CBD1CE0,0,0,19695,0,0,146
01:00:09,6CBD1DE0,0,0,19695,0,0,146
01:00:17,6CBD1EE0,0,0,19695,0,0,146
01:00:25,6CBD1FE0,0,0,19695,0,0,146
01:00:33,6CBD20E0,0,0,19695,0,0,146
01:00:41,6CBD21E0,0,0,19695,0,0,146
01:00:49,6CBD22E0,0,0,19695,0,0,145
01:00:57,6CBD23E0,0,0,19695,0,0,145
01:01:05,6CBD24E0,0,0,19695,0,0,145
01:01:13,6CBD25E0,0,0,19695,0,0,144
01:01:21,6CBD26E0,0,0,19695,0,0,144
01:01:29,6CBD27E0,0,0,19695,0,0,144
01:01:37,6CBD28E0,0,0,19695,0,0,143
01:01:45,6CBD29E0,0,0,19695,0,0,143
01:01:53,6CBD2AE0,0,0,19695,0,0,143
01:02:01,6CBD2BE0,0,0,19695,0,0,142
01:02:09,6CBD2CE0,0,0,19695,0,0,142
01:02:17,6CBD2DE0,0,0,19695,0,0,142
01:02:25,6CBD2EE0,0,0,19695,0,0,141
01:02:33,6CBD2FE0,0,0,19695,0,0,141
01:02:41,6CBD30E0,0,0,19695,0,0,141
01:02:49,6CBD31E0,0,0,19695,0,0,141
01:02:57,6CBD32E0,0,0,19695,0,0,141
01:03:05,6CBD33E0,0,0,19695,0,0,141
01:03:13,6CBD34E0,0,0,19695,0,0,141
01:03:21,6CBD35E0,0,0,19695,0,0,141
01:03:29,6CBD36E0,0,0,19695,0,0,142
01:03:37,6CBD37E0,0,0,19695,0,0,142
01:03:45,6CBD38E0,0,0,19695,0,0,142
01:03:53,6CBD39E0,0,0,19695,0,0,142
01:04:01,6CBD3AE0,0,0,19695,0,0,142
01:04:09,6CBD3BE0,0,0,19695,0,0,143
01:04:17,6CBD3CE0,0,0,19695,0,0,143
01:04:25,6CBD3DE0,0,0,19695,0,0,143
01:04:33,6CBD3EE0,0,0,19695,0,0,143
01:04:41,6CBD3FE0,0,0,19695,0,0,143
01:04:49,6CBD40E0,0,0,19695,0,0,143
01:04:57,6CBD41E0,0,0,19695,0,0,144
01:05:05,6CBD42E0,0,0,19695,0,0,144
01:05:13,6CBD43E0,0,0,19695,0,0,144
01:05:21,6CBD44E0,0,0,19695,0,0,144
01:05:29,6CBD45E0,0,0,19695,0,0,144
01:05:37,6CBD46E0,0,0,19695,0,0,145
01:05:45,6CBD47E0,0,0,19695,0,0,145
01:05:53,6CBD48E0,0,0,19695,0,0,145
01:06:01,6CBD49E0,0,0,19695,0,0,145
01:06:09,6CBD4AE0,0,0,19695,0,0,145
01:06:17,6CBD4BE0,0,0,19695,0,0,145
01:06:25,6CBD4CE0,0,0,19695,0,0,145
01:06:33,6CBD4DE0,0,0,19695,0,0,145
01:06:41,6CBD4EE0,0,0,19695,0,0,146
01:06:49,6CBD4FE0,0,0,19695,0,0,146
01:06:57,6CBD50E0,0,0,19695,0,0,146
01:07:05,6CBD51E0,0,0,19695,0,0,146
01:07:13,6CBD52E0,0,0,19695,0,0,146
01:07:21,6CBD53E0,0,0,19695,0,0,146
01:07:29,6CBD54E0,0,0,19695,0,0,145
01:07:37,6CBD55E0,0,0,19695,0,0,145
01:07:45,6CBD56E0,0,0,19695,0,0,145
01:07:53,6CBD57E0,0,0,19695,0,0,144
01:08:01,6CBD58E0,0,0,19695,0,0,144
01:08:09,6CBD59E0,0,0,19695,0,0,143
01:08:17,6CBD5AE0,0,0,19695,0,0,143
01:08:25,6CBD5BE0,0,0,19695,0,0,143
01:08:33,6CBD5CE0,0,0,19695,0,0,142
01:08:41,6CBD5DE0,0,0,19695,0,0,142
01:08:49,6CBD5EE0,0,0,19695,0,0,142
01:08:57,6CBD5FE0,0,0,19695,0,0,142
01:09:05,6CBD60E0,0,0,19695,0,0,141
01:09:13,6CBD61E0,0,0,19695,0,0,141
01:09:21,6CBD62E0,0,0,19695,0,0,141
01:09:29,6CBD63E0,0,0,19695,0,0,141
01:09:37,6CBD64E0,0,0,19695,0,0,141
01:09:45,6CBD65E0,0,0,19695,0,0,141
01:09:53,6CBD66E0,0,0,19695,0,0,141
01:10:01,6CBD67E0,0,0,19695,0,0,141
01:10:09,6CBD68E0,0,0,19695,0,0,141
01:10:17,6CBD69E0,0,0,19695,0,0,142
01:10:25,6CBD6AE0,0,0,19695,0,0,142
01:10:33,6CBD6BE0,0,0,19695,0,0,142
01:10:41,6CBD6CE0,0,0,19695,0,0,143
01:10:49,6CBD6DE0,0,0,19695,0,0,143
01:10:57,6CBD6EE0,0,0,19695,0,0,143
01:11:05,6CBD6FE0,0,0,19695,0,0,143
01:11:13,6CBD70E0,0,0,19695,0,0,143
01:11:21,6CBD71E0,0,0,19695,0,0,143
01:11:29,6CBD72E0,0,0,19695,0,0,143
01:11:37,6CBD73E0,0,0,19695,0,0,144
01:11:45,6CBD74E0,0,0,19695,0,0,144
01:11:53,6CBD75E0,0,0,19695,0,0,144
01:12:01,6CBD76E0,0,0,19695,0,0,144
01:12:09,6CBD77E0,0,0,19695,0,0,145
01:12:17,6CBD78E0,0,0,19695,0,0,145
01:12:25,6CBD79E0,0,0,19695,0,0,145
01:12:33,6CBD7AE0,0,0,19695,0,0,145
01:12:41,6CBD7BE0,0,0,19695,0,0,145
01:12:49,6CBD7CE0,0,0,19695,0,0,145
01:12:57,6CBD7DE0,0,0,19695,0,0,145
01:13:05,6CBD7EE0,0,0,19695,0,0,145
01:13:13,6CBD7FE0,0,0,19695,0,0,145
01:13:21,6CBD80E0,0,0,19695,0,0,145
01:13:29,6CBD81E0,0,0,19695,0,0,145
01:13:37,6CBD82E0,0,0,19695,0,0,145
01:13:45,6CBD83E0,0,0,19695,0,0,146
01:13:53,6CBD84E0,0,0,19695,0,0,146
01:14:01,6CBD85E0,0,0,19695,0,0,145
01:14:09,6CBD86E0,0,0,19695,0,0,145
01:14:17,6CBD87E0,0,0,19695,0,0,145
01:14:25,6CBD88E0,0,0,19695,0,0,145
01:14:33,6CBD89E0,0,0,19695,0,0,144
01:14:41,6CBD8AE0,0,0,19695,0,0,144
01:14:49,6CBD8BE0,0,0,19695,0,0,143
01:14:57,6CBD8CE0,0,0,19695,0,0,143
01:15:05,6CBD8DE0,0,0,19695,0,0,143
01:15:13,6CBD8EE0,0,0,19695,0,0,142
01:15:21,6CBD8FE0,0,0,19695,0,0,142
01:15:29,6CBD90E0,0,0,19695,0,0,142
01:15:37,6CBD91E0,0,0,19695,0,0,142
01:15:45,6CBD92E0,0,0,19695,0,0,141
01:15:53,6CBD93E0,0,0,19695,0,0,141
01:16:01,6CBD94E0,0,0,19695,0,0,141
01:16:09,6CBD95E0,0,0,19695,0,0,141
01:16:17,6CBD96E0,0,0,19695,0,0,141
01:16:25,6CBD97E0,0,0,19695,0,0,141
01:16:33,6CBD98E0,0,0,19695,0,0,141
01:16:41,6CBD99E0,0,0,19695,0,0,141
01:16:49,6CBD9AE0,0,0,19695,0,0,142
01:16:57,6CBD9BE0,0,0,19695,0,0,142
01:17:05,6CBD9CE0,0,0,19695,0,0,142
01:17:13,6CBD9DE0,0,0,19695,0,0,142
01:17:21,6CBD9EE0,0,0,19695,0,0,143
01:17:29,6CBD9FE0,0,0,19695,0,0,143
01:17:37,6CBDA0E0,0,0,19695,0,0,143
01:17:45,6CBDA1E0,0,0,19695,0,0,143
01:17:53,6CBDA2E0,0,0,19695,0,0,143
01:18:01,6CBDA3E0,0,0,19695,0,0,144
01:18:09,6CBDA4E0,0,0,19695,0,0,144
01:18:17,6CBDA5E0,0,0,19695,0,0,144
01:18:25,6CBDA6E0,0,0,19695,0,0,144
01:18:33,6CBDA7E0,0,0,19695,0,0,144
01:18:41,6CBDA8E0,0,0,19695,0,0,144
01:18:49,6CBDA9E0,0,0,19695,0,0,145
01:18:57,6CBDAAE0,0,0,19695,0,0,145
01:19:05,6CBDABE0,0,0,19695,0,0,145
01:19:13,6CBDACE0,0,0,19695,0,0,145
01:19:21,6CBDADE0,0,0,19695,0,0,145
01:19:29,6CBDAEE0,0,0,19695,0,0,145
01:19:37,6CBDAFE0,0,0,19695,0,0,145
01:19:45,6CBDB0E0,0,0,19695,0,0,145
01:19:53,6CBDB1E0,0,0,19695,0,0,145
01:20:01,6CBDB2E0,0,0,19695,0,0,146
01:20:09,6CBDB3E0,0,0,19695,0,0,146
01:20:17,6CBDB4E0,0,0,19695,0,0,146
01:20:25,6CBDB5E0,0,0,19695,0,0,146
01:20:33,6CBDB6E0,0,0,19695,0,0,146
01:20:41,6CBDB7E0,0,0,19695,0,0,145
01:20:49,6CBDB8E0,0,0,19695,0,0,145
01:20:57,6CBDB9E0,0,0,19695,0,0,145
01:21:05,6CBDBAE0,0,0,19695,0,0,145
01:21:13,6CBDBBE0,0,0,19695,0,0,144
01:21:21,6CBDBCE0,0,0,19695,0,0,144
01:21:29,6CBDBDE0,0,0,19695,0,0,143
01:21:37,6CBDBEE0,0,0,19695,0,0,143
01:21:45,6CBDBFE0,0,0,19695,0,0,143
01:21:53,6CBDC0E0,0,0,19695,0,0,142
01:22:01,6CBDC1E0,0,0,19695,0,0,142
01:22:09,6CBDC2E0,0,0,19695,0,0,142
01:22:17,6CBDC3E0,0,0,19695,0,0,141
01:22:25,6CBDC4E0,0,0,19695,0,0,141
01:22:33,6CBDC5E0,0,0,19695,0,0,141
01:22:41,6CBDC6E0,0,0,19695,0,0,141
01:22:49,6CBDC7E0,0,0,19695,0,0,141
01:22:57,6CBDC8E0,0,0,19695,0,0,141
01:23:05,6CBDC9E0,0,0,19695,0,0,141
01:23:13,6CBDCAE0,0,0,19695,0,0,141
01:23:21,6CBDCBE0,0,0,19695,0,0,142
01:23:29,6CBDCCE0,0,0,19695,0,0,142
01:23:37,6CBDCDE0,0,0,19695,0,0,142
01:23:45,6CBDCEE0,0,0,19695,0,0,142
01:23:53,6CBDCFE0,0,0,19695,0,0,142
01:24:01,6CBDD0E0,0,0,19695,0,0,143
01:24:09,6CBDD1E0,0,0,19695,0,0,143
01:24:17,6CBDD2E0,0,0,19695,0,0,143
01:24:25,6CBDD3E0,0,0,19695,0,0,143
01:24:33,6CBDD4E0,0,0,19695,0,0,144
01:24:41,6CBDD5E0,0,0,19695,0,0,144
01:24:49,6CBDD6E0,0,0,19695,0,0,144
01:24:57,6CBDD7E0,0,0,19695,0,0,144
01:25:05,6CBDD8E0,0,0,19695,0,0,144
01:25:13,6CBDD9E0,0,0,19695,0,0,144
01:25:21,6CBDDAE0,0,0,19695,0,0,144
01:25:29,6CBDDBE0,0,0,19695,0,0,144
01:25:37,6CBDDCE0,0,0,19695,0,0,145
01:25:45,6CBDDDE0,0,0,19695,0,0,145
01:25:53,6CBDDEE0,0,0,19695,0,0,145
01:26:01,6CBDDFE0,0,0,19695,0,0,145
01:26:09,6CBDE0E0,0,0,19695,0,0,145
01:26:17,6CBDE1E0,0,0,19695,0,0,145